Weather in Naxos

Greece     37°06′04″N   25°22′37″E
temp.,
°C
wind,
m/s
gust,
m/s
humid.,
%
clouds,
%
prec.,
mm/h
press.,
hPa
HPBL,
m
20 june, sun
sun2000:00+22nnw33721 0.0 101249
03:00+22nw33701 0.0 101132
06:00+22n44760 0.0 101163
09:00+24n46640 0.0 1011402
12:00+25n56580 0.0 1012602
15:00+26n56570 0.0 1011668
18:00+25n56570 0.0 1010508
21:00+23n44720 0.0 101069
21 june, mon
mon2100:00+22n34751 0.0 101157
03:00+22nnw34730 0.0 101063
06:00+22n45741 0.0 1010103
09:00+24n57620 0.0 1012330
12:00+26n56572 0.0 1012557
15:00+27nnw35510 0.0 1011634
18:00+26nnw24554 0.0 1011457
21:00+24wnw33630 0.0 101123
22 june, tue
tue2200:00+24wnw226477 0.0 101216
03:00+23nnw227483 0.0 101123
06:00+22e01765 0.0 101111
09:00+25n33640 0.0 1012253
12:00+27nnw23550 0.0 1012528
15:00+28nnw35530 0.0 1013576
18:00+28nnw24530 0.0 1012419
21:00+25nw336515 0.0 101334
23 june, wed
wed2300:00+25nnw22614 0.0 101317
03:00+24nnw33680 0.0 101225
06:00+23nnw337270 0.0 101227
09:00+26n45560 0.0 1013224
12:00+28n45530 0.0 1014434
15:00+29n34500 0.0 1014547
18:00+29nnw34500 0.0 1014425
21:00+26nnw34590 0.0 101430
24 june, thu
thu2400:00+25nnw45630 0.0 101440
03:00+25nnw44590 0.0 101433
06:00+24n69700 0.0 1014111
09:00+27n710600 0.0 1015348
12:00+29n710560 0.0 1015469
15:00+29n710510 0.0 1014478
18:00+29n69500 0.0 1013395
21:00+26nnw57620 0.0 101383